Location: Unspecified
(17.6330°N, 0.0000°E)
Time: 18:28:09
(UTC+00:00)

Courier 1B Rocket - Pass Details

Date: 29 June 2019
Orbit: 920 x 1202 km, 28.2° (Epoch: 14 July)

Event Time Altitude Azimuth Distance (km) Brightness Sun altitude
Exits shadow 02:23:35 38° 338° (NNW) 1,655 6.2 -36.7°
Maximum altitude 02:24:20 39° 351° (N) 1,625 6.3 -36.6°
Drops below altitude 10° 02:30:55 10° 58° (ENE) 2,890 8.2 -35.5°
Sets 02:33:47 0° 67° (ENE) 3,800 8.9 -35.0°
